IBE2243 LEMD-LEPA

Flight info

Callsign IBE2243
Flight time 0h 49m
Altitude 31000
Route NANDO T257 LASPO M871 GODOX
Aircraft A320/M-SDE3FGHIRWY/LB1

Departure

Time 2026-05-06 16:38
Airport Adolfo Suárez Madrid–Barajas Airport (LEMD)

Arrival

Time 2026-05-06 17:27
Airport Palma de Mallorca Airport (LEPA)
Time Latitude Longitude Altitude Speed Heading
2026-05-06 16:06 40.49044 -3.58989 1991 ft 0 kts 268°
2026-05-06 16:23 40.49044 -3.58985 2018 ft 2 kts 268°
2026-05-06 16:23 40.49044 -3.58963 1991 ft 2 kts 270°
2026-05-06 16:23 40.49044 -3.58941 1991 ft 2 kts 268°
2026-05-06 16:23 40.49045 -3.58920 1991 ft 2 kts 252°
2026-05-06 16:24 40.49055 -3.58902 1989 ft 2 kts 195°
2026-05-06 16:24 40.49060 -3.58901 1990 ft 0 kts 182°
2026-05-06 16:27 40.49049 -3.58901 1991 ft 6 kts 180°
2026-05-06 16:27 40.49007 -3.58901 1991 ft 5 kts 180°
2026-05-06 16:28 40.48948 -3.58901 1992 ft 11 kts 180°
2026-05-06 16:28 40.48866 -3.58901 1992 ft 12 kts 180°
2026-05-06 16:28 40.48781 -3.58891 1993 ft 12 kts 155°
2026-05-06 16:28 40.48761 -3.58802 1993 ft 9 kts 88°
2026-05-06 16:29 40.48762 -3.58727 1994 ft 7 kts 90°
2026-05-06 16:29 40.48761 -3.58617 1994 ft 15 kts 91°
2026-05-06 16:29 40.48763 -3.58458 1995 ft 20 kts 90°
2026-05-06 16:29 40.48763 -3.58272 1996 ft 21 kts 88°
2026-05-06 16:30 40.48764 -3.58119 1997 ft 13 kts 90°
2026-05-06 16:30 40.48793 -3.58063 1997 ft 11 kts 21°
2026-05-06 16:30 40.48858 -3.57973 1996 ft 11 kts 90°
2026-05-06 16:30 40.48858 -3.57838 1996 ft 17 kts 91°
2026-05-06 16:31 40.48857 -3.57675 1996 ft 18 kts 90°
2026-05-06 16:31 40.48860 -3.57501 1995 ft 20 kts 89°
2026-05-06 16:31 40.48861 -3.57313 1994 ft 22 kts 89°
2026-05-06 16:31 40.48861 -3.57124 1991 ft 21 kts 92°
2026-05-06 16:32 40.48863 -3.56919 1987 ft 24 kts 90°
2026-05-06 16:32 40.48864 -3.56732 1982 ft 17 kts 90°
2026-05-06 16:32 40.48863 -3.56566 1976 ft 8 kts 89°
2026-05-06 16:32 40.48864 -3.56482 1972 ft 10 kts 89°
2026-05-06 16:33 40.48864 -3.56379 1968 ft 13 kts 90°
2026-05-06 16:33 40.48884 -3.56259 1963 ft 14 kts 37°
2026-05-06 16:33 40.48972 -3.56246 1962 ft 12 kts 359°
2026-05-06 16:34 40.49157 -3.56247 1960 ft 20 kts 359°
2026-05-06 16:34 40.49286 -3.56248 1958 ft 19 kts 360°
2026-05-06 16:34 40.49425 -3.56250 1957 ft 20 kts
2026-05-06 16:34 40.49540 -3.56250 1957 ft 15 kts 359°
2026-05-06 16:35 40.49635 -3.56250 1957 ft 13 kts 360°
2026-05-06 16:35 40.49718 -3.56250 1956 ft 13 kts 360°
2026-05-06 16:35 40.49834 -3.56252 1955 ft 18 kts 359°
2026-05-06 16:35 40.49923 -3.56236 1957 ft 11 kts 36°
2026-05-06 16:36 40.49944 -3.56184 1953 ft 9 kts 90°
2026-05-06 16:36 40.49942 -3.56101 1952 ft 9 kts 90°
2026-05-06 16:36 40.49958 -3.56004 1952 ft 17 kts 62°
2026-05-06 16:36 40.50047 -3.55929 1950 ft 13 kts 15°
2026-05-06 16:37 40.50114 -3.55920 1949 ft 9 kts
2026-05-06 16:37 40.50390 -3.55921 1949 ft 82 kts 359°
2026-05-06 16:37 40.51229 -3.55928 1942 ft 157 kts
2026-05-06 16:37 40.52468 -3.55900 2281 ft 191 kts
2026-05-06 16:38 40.53892 -3.55893 2904 ft 218 kts
2026-05-06 16:38 40.55461 -3.55629 3713 ft 229 kts 11°
2026-05-06 16:38 40.56974 -3.55057 4724 ft 226 kts 15°
2026-05-06 16:38 40.58470 -3.54403 5569 ft 227 kts 16°
2026-05-06 16:39 40.59884 -3.53462 6278 ft 238 kts 38°
2026-05-06 16:39 40.60895 -3.51659 6784 ft 255 kts 70°
2026-05-06 16:39 40.61037 -3.49302 7322 ft 269 kts 104°
2026-05-06 16:39 40.60228 -3.47042 7877 ft 282 kts 122°
2026-05-06 16:40 40.59175 -3.44799 8518 ft 293 kts 123°
2026-05-06 16:40 40.58096 -3.42507 9354 ft 296 kts 123°
2026-05-06 16:40 40.57012 -3.40194 10150 ft 300 kts 123°
2026-05-06 16:40 40.55890 -3.37799 10603 ft 316 kts 122°
2026-05-06 16:41 40.54709 -3.35271 11009 ft 333 kts 122°
2026-05-06 16:41 40.53477 -3.32624 11441 ft 347 kts 122°
2026-05-06 16:41 40.52205 -3.29888 12093 ft 352 kts 122°
2026-05-06 16:41 40.50922 -3.27124 12816 ft 356 kts 122°
2026-05-06 16:42 40.49626 -3.24339 13544 ft 359 kts 122°
2026-05-06 16:42 40.48311 -3.21526 14194 ft 363 kts 122°
2026-05-06 16:42 40.46976 -3.18684 14819 ft 367 kts 122°
2026-05-06 16:42 40.45630 -3.15819 15461 ft 371 kts 122°
2026-05-06 16:43 40.44291 -3.12959 16035 ft 375 kts 122°
2026-05-06 16:43 40.42899 -3.09985 16636 ft 379 kts 123°
2026-05-06 16:43 40.41516 -3.07023 17220 ft 383 kts 123°
2026-05-06 16:43 40.40119 -3.04032 17805 ft 387 kts 123°
2026-05-06 16:44 40.38700 -3.01001 18354 ft 391 kts 123°
2026-05-06 16:44 40.37281 -2.97977 18828 ft 396 kts 123°
2026-05-06 16:44 40.35808 -2.94852 19269 ft 401 kts 124°
2026-05-06 16:44 40.34329 -2.91724 19728 ft 407 kts 124°
2026-05-06 16:45 40.32822 -2.88546 20161 ft 412 kts 124°
2026-05-06 16:45 40.31300 -2.85332 20588 ft 418 kts 124°
2026-05-06 16:45 40.29759 -2.82076 21027 ft 424 kts 124°
2026-05-06 16:45 40.28192 -2.78769 21453 ft 430 kts 125°
2026-05-06 16:46 40.26602 -2.75414 21866 ft 436 kts 125°
2026-05-06 16:46 40.24993 -2.72027 22281 ft 441 kts 125°
2026-05-06 16:46 40.23371 -2.68612 22703 ft 447 kts 126°
2026-05-06 16:46 40.21712 -2.65114 23104 ft 452 kts 126°
2026-05-06 16:47 40.20043 -2.61599 23477 ft 458 kts 126°
2026-05-06 16:47 40.18353 -2.58042 23811 ft 463 kts 126°
2026-05-06 16:47 40.16647 -2.54455 24172 ft 466 kts 126°
2026-05-06 16:47 40.14932 -2.50859 24551 ft 469 kts 127°
2026-05-06 16:48 40.13195 -2.47224 24921 ft 471 kts 127°
2026-05-06 16:48 40.11472 -2.43630 25293 ft 473 kts 127°
2026-05-06 16:48 40.09721 -2.39979 25676 ft 475 kts 127°
2026-05-06 16:48 40.07966 -2.36318 26058 ft 477 kts 127°
2026-05-06 16:49 40.06211 -2.32665 26404 ft 479 kts 127°
2026-05-06 16:49 40.04401 -2.28909 26741 ft 481 kts 127°
2026-05-06 16:49 40.02615 -2.25209 27088 ft 483 kts 128°
2026-05-06 16:49 40.00821 -2.21490 27409 ft 485 kts 128°
2026-05-06 16:50 39.99049 -2.17811 27732 ft 487 kts 127°
2026-05-06 16:50 39.97274 -2.13976 28051 ft 490 kts 125°
2026-05-06 16:50 39.95595 -2.10099 28377 ft 493 kts 124°
2026-05-06 16:50 39.93984 -2.06214 28695 ft 495 kts 123°
2026-05-06 16:51 39.92370 -2.02248 28989 ft 497 kts 123°
2026-05-06 16:51 39.90725 -1.98211 29289 ft 498 kts 123°
2026-05-06 16:51 39.89076 -1.94230 29586 ft 499 kts 124°
2026-05-06 16:51 39.87405 -1.90266 29868 ft 501 kts 124°
2026-05-06 16:52 39.85731 -1.86351 30098 ft 502 kts 125°
2026-05-06 16:52 39.84003 -1.82339 30327 ft 503 kts 125°
2026-05-06 16:52 39.82309 -1.78411 30547 ft 504 kts 125°
2026-05-06 16:52 39.80595 -1.74423 30769 ft 506 kts 125°
2026-05-06 16:53 39.78865 -1.70379 30884 ft 505 kts 125°
2026-05-06 16:53 39.77194 -1.66449 30913 ft 487 kts 125°
2026-05-06 16:53 39.74620 -1.60416 30912 ft 480 kts 126°
2026-05-06 16:54 39.68114 -1.45375 30940 ft 480 kts 126°
2026-05-06 16:54 39.61597 -1.30306 30956 ft 479 kts 126°
2026-05-06 16:55 39.55032 -1.15244 30954 ft 479 kts 126°
2026-05-06 16:55 39.48465 -1.00235 30938 ft 478 kts 126°
2026-05-06 16:56 39.41892 -0.85269 30930 ft 478 kts 126°
2026-05-06 16:56 39.36309 -0.72564 30931 ft 477 kts 127°
2026-05-06 16:57 39.33002 -0.65133 30926 ft 477 kts 127°
2026-05-06 16:57 39.29961 -0.57498 30930 ft 486 kts 115°
2026-05-06 16:58 39.28659 -0.48858 30927 ft 498 kts 95°
2026-05-06 16:58 39.29033 -0.39951 30920 ft 500 kts 89°
2026-05-06 16:59 39.29514 -0.30996 30921 ft 500 kts 89°
2026-05-06 16:59 39.29978 -0.22035 30933 ft 500 kts 89°
2026-05-06 17:00 39.30434 -0.13087 30932 ft 500 kts 89°
2026-05-06 17:00 39.30658 -0.08629 30749 ft 495 kts 89°
2026-05-06 17:00 39.30880 -0.04236 30482 ft 485 kts 89°
2026-05-06 17:00 39.31099 0.00089 30075 ft 482 kts 89°
2026-05-06 17:01 39.31314 0.04394 29444 ft 478 kts 89°
2026-05-06 17:01 39.31526 0.08662 28806 ft 474 kts 89°
2026-05-06 17:01 39.31736 0.12895 28185 ft 471 kts 88°
2026-05-06 17:01 39.31941 0.17099 27576 ft 467 kts 88°
2026-05-06 17:02 39.32141 0.21265 26985 ft 463 kts 88°
2026-05-06 17:02 39.32339 0.25399 26386 ft 459 kts 88°
2026-05-06 17:02 39.32532 0.29501 25814 ft 456 kts 88°
2026-05-06 17:02 39.32721 0.33559 25250 ft 452 kts 88°
2026-05-06 17:03 39.32908 0.37599 24691 ft 448 kts 88°
2026-05-06 17:03 39.33092 0.41598 24158 ft 444 kts 88°
2026-05-06 17:03 39.33275 0.45567 23626 ft 441 kts 88°
2026-05-06 17:03 39.33455 0.49506 23026 ft 438 kts 88°
2026-05-06 17:04 39.33633 0.53416 22404 ft 435 kts 88°
2026-05-06 17:04 39.33808 0.57302 21788 ft 433 kts 88°
2026-05-06 17:04 39.33980 0.61177 21198 ft 431 kts 88°
2026-05-06 17:04 39.34149 0.65032 20621 ft 429 kts 88°
2026-05-06 17:05 39.34319 0.68818 20049 ft 427 kts 88°
2026-05-06 17:05 39.34490 0.72639 19486 ft 425 kts 88°
2026-05-06 17:05 39.34659 0.76484 18933 ft 423 kts 88°
2026-05-06 17:05 39.34818 0.80173 18388 ft 408 kts 88°
2026-05-06 17:06 39.34969 0.83764 17874 ft 392 kts 88°
2026-05-06 17:06 39.35117 0.87222 17347 ft 378 kts 88°
2026-05-06 17:06 39.35260 0.90549 16830 ft 365 kts 88°
2026-05-06 17:06 39.35394 0.93774 16317 ft 354 kts 87°
2026-05-06 17:07 39.35523 0.96907 15813 ft 344 kts 88°
2026-05-06 17:07 39.35645 0.99985 15320 ft 344 kts 87°
2026-05-06 17:07 39.35770 1.03079 14765 ft 348 kts 87°
2026-05-06 17:07 39.35898 1.06209 14214 ft 352 kts 87°
2026-05-06 17:08 39.36031 1.09401 13651 ft 355 kts 87°
2026-05-06 17:08 39.36163 1.12600 13041 ft 357 kts 87°
2026-05-06 17:08 39.36291 1.15807 12431 ft 359 kts 87°
2026-05-06 17:08 39.36417 1.19023 11843 ft 359 kts 87°
2026-05-06 17:09 39.36540 1.22245 11266 ft 359 kts 87°
2026-05-06 17:09 39.36662 1.25463 10695 ft 358 kts 86°
2026-05-06 17:09 39.36785 1.28671 10153 ft 357 kts 86°
2026-05-06 17:09 39.36903 1.31824 9933 ft 345 kts 86°
2026-05-06 17:10 39.37017 1.34848 9917 ft 327 kts 86°
2026-05-06 17:10 39.37127 1.37693 9926 ft 309 kts 86°
2026-05-06 17:10 39.37235 1.40417 9926 ft 302 kts 85°
2026-05-06 17:10 39.37519 1.43108 9927 ft 302 kts 79°
2026-05-06 17:11 39.37876 1.45779 9925 ft 301 kts 79°
2026-05-06 17:11 39.38229 1.48439 9747 ft 300 kts 79°
2026-05-06 17:11 39.38580 1.51091 9352 ft 298 kts 79°
2026-05-06 17:11 39.38926 1.53710 8953 ft 295 kts 79°
2026-05-06 17:12 39.39272 1.56325 8544 ft 294 kts 79°
2026-05-06 17:12 39.39615 1.58916 8147 ft 292 kts 79°
2026-05-06 17:12 39.39957 1.61491 7926 ft 295 kts 79°
2026-05-06 17:12 39.40308 1.64148 7925 ft 301 kts 79°
2026-05-06 17:13 39.40657 1.66813 7928 ft 301 kts 80°
2026-05-06 17:13 39.41004 1.69488 7934 ft 302 kts 80°
2026-05-06 17:13 39.41351 1.72158 7934 ft 301 kts 80°
2026-05-06 17:13 39.41696 1.74831 7939 ft 301 kts 80°
2026-05-06 17:14 39.41870 1.77526 7932 ft 302 kts 90°
2026-05-06 17:14 39.41819 1.80209 7927 ft 291 kts 92°
2026-05-06 17:14 39.41741 1.82816 7932 ft 291 kts 92°
2026-05-06 17:14 39.41662 1.85426 7940 ft 291 kts 92°
2026-05-06 17:15 39.41583 1.88033 7934 ft 290 kts 92°
2026-05-06 17:15 39.41506 1.90641 7937 ft 291 kts 92°
2026-05-06 17:15 39.41426 1.93334 7934 ft 301 kts 92°
2026-05-06 17:15 39.41345 1.96038 7939 ft 301 kts 92°
2026-05-06 17:16 39.41267 1.98745 7937 ft 299 kts 92°
2026-05-06 17:16 39.41191 2.01367 7940 ft 289 kts 92°
2026-05-06 17:16 39.41168 2.03971 7917 ft 289 kts 85°
2026-05-06 17:16 39.41378 2.06546 7662 ft 287 kts 82°
2026-05-06 17:17 39.41639 2.09102 7249 ft 285 kts 82°
2026-05-06 17:17 39.41906 2.11601 6858 ft 283 kts 82°
2026-05-06 17:17 39.42152 2.13828 6525 ft 280 kts 82°
2026-05-06 17:17 39.42435 2.16321 6131 ft 277 kts 82°
2026-05-06 17:18 39.42717 2.18773 5762 ft 273 kts 82°
2026-05-06 17:18 39.42997 2.21182 5366 ft 271 kts 82°
2026-05-06 17:18 39.43277 2.23577 5038 ft 266 kts 82°
2026-05-06 17:18 39.43553 2.25895 4989 ft 252 kts 82°
2026-05-06 17:19 39.43642 2.26639 4995 ft 247 kts 82°
2026-05-06 17:19 39.43799 2.27971 4985 ft 243 kts 82°
2026-05-06 17:19 39.44057 2.30147 4999 ft 249 kts 82°
2026-05-06 17:20 39.44318 2.32353 5001 ft 246 kts 82°
2026-05-06 17:20 39.44490 2.33802 5002 ft 245 kts 82°
2026-05-06 17:20 39.44745 2.35943 4817 ft 239 kts 82°
2026-05-06 17:20 39.45081 2.38753 4449 ft 235 kts 82°
2026-05-06 17:21 39.45316 2.40737 4180 ft 231 kts 82°
2026-05-06 17:21 39.45478 2.42113 3990 ft 229 kts 82°
2026-05-06 17:21 39.45711 2.44104 3721 ft 225 kts 82°
2026-05-06 17:21 39.45946 2.46092 3450 ft 222 kts 82°
2026-05-06 17:22 39.46176 2.48046 3177 ft 219 kts 82°
2026-05-06 17:22 39.46403 2.49975 2975 ft 211 kts 82°
2026-05-06 17:22 39.46611 2.51768 3027 ft 196 kts 82°
2026-05-06 17:22 39.46812 2.53489 3017 ft 186 kts 82°
2026-05-06 17:23 39.47107 2.55055 2869 ft 177 kts 63°
2026-05-06 17:23 39.47757 2.56394 2640 ft 173 kts 60°
2026-05-06 17:23 39.48402 2.57762 2405 ft 181 kts 60°
2026-05-06 17:23 39.49032 2.59090 2174 ft 162 kts 60°
2026-05-06 17:24 39.49586 2.60258 1975 ft 144 kts 60°
2026-05-06 17:24 39.50100 2.61339 1793 ft 140 kts 60°
2026-05-06 17:24 39.50609 2.62413 1600 ft 139 kts 60°
2026-05-06 17:24 39.51117 2.63484 1415 ft 139 kts 60°
2026-05-06 17:25 39.51623 2.64549 1216 ft 139 kts 60°
2026-05-06 17:25 39.52129 2.65617 1029 ft 139 kts 59°
2026-05-06 17:25 39.52640 2.66676 796 ft 138 kts 57°
2026-05-06 17:25 39.53142 2.67734 603 ft 138 kts 58°
2026-05-06 17:26 39.53622 2.68749 461 ft 138 kts 57°
2026-05-06 17:26 39.54124 2.69809 287 ft 138 kts 57°
2026-05-06 17:26 39.54625 2.70879 122 ft 139 kts 57°
2026-05-06 17:26 39.55118 2.71923 39 ft 127 kts 57°
2026-05-06 17:27 39.55473 2.72667 38 ft 63 kts 60°
2026-05-06 17:27 39.55638 2.73021 38 ft 31 kts 59°
2026-05-06 17:27 39.55708 2.73177 38 ft 18 kts 72°
2026-05-06 17:27 39.55717 2.73340 38 ft 18 kts 86°
2026-05-06 17:28 39.55719 2.73429 38 ft 6 kts 88°
2026-05-06 17:28 39.55720 2.73454 38 ft 0 kts 88°
2026-05-06 17:29 39.55719 2.73494 38 ft 7 kts 97°
2026-05-06 17:29 39.55699 2.73517 38 ft 2 kts 171°
2026-05-06 17:30 39.55684 2.73520 38 ft 6 kts 175°
2026-05-06 17:30 39.55604 2.73516 38 ft 12 kts 158°
2026-05-06 17:30 39.55534 2.73568 38 ft 11 kts 148°
2026-05-06 17:30 39.55474 2.73615 38 ft 9 kts 149°
2026-05-06 17:31 39.55420 2.73658 38 ft 9 kts 148°
2026-05-06 17:31 39.55346 2.73717 38 ft 15 kts 148°
2026-05-06 17:31 39.55265 2.73781 38 ft 13 kts 148°
2026-05-06 17:31 39.55196 2.73827 38 ft 7 kts 181°
2026-05-06 17:32 39.55175 2.73801 38 ft 4 kts 230°
2026-05-06 17:32 39.55175 2.73738 38 ft 9 kts 290°
2026-05-06 17:32 39.55170 2.73678 38 ft 7 kts 243°
2026-05-06 17:32 39.55133 2.73598 36 ft 8 kts 238°
2026-05-06 17:33 39.55120 2.73570 38 ft 0 kts 237°
2026-05-06 17:33 39.55115 2.73565 38 ft 3 kts 217°
2026-05-06 17:33 39.55102 2.73565 38 ft 4 kts 175°
2026-05-06 17:33 39.55074 2.73576 38 ft 2 kts 161°
2026-05-06 17:34 39.55066 2.73580 36 ft 0 kts 163°